Location: Unspecified
(47.6577°N, 23.5639°E)
Time: 18:19:47
(UTC+02:00)

ISS - Pass Details

Date: 11 February 2017
Orbit: 399 x 408 km, 51.6° (Epoch: 24 February)

Event Time Altitude Azimuth Distance (km) Brightness Sun altitude
Rises 19:26:34 0° 293° (WNW) 2,327 1.7 -18.0°
Reaches altitude 10° 19:28:40 10° 291° (WNW) 1,462 0.5 -18.3°
Maximum altitude 19:31:55 70° 209° (SSW) 433 -3.2 -18.9°
Enters shadow 19:32:21 59° 157° (SSE) 468 -3.2 -18.9°
